sat.trackr.live / text

‹ back to catalog

STARLINK-37028

NORAD 68270 · 2026-055J

PAYLOAD ACTIVE UNKNOWN

§ Identity

Operator
Country
US
Launch date
2026-03-19
Launch site
AFETR
Launch vehicle
Mass (kg)
RCS (m²)

Purposes: comms

External: N2YO · Heavens-Above · Gunter

§ Orbital elements

Epoch: 2026-09-19T22:34:01.293600Z

Period
93.85 min
Inclination
53.1558°
Eccentricity
0.0001705
Mean motion
15.34410283 rev/d
Perigee alt
461.5 km
Apogee alt
463.8 km
Semi-major
6,840.8 km
B*
4.6176e-4
RAAN
134.0140°
Arg perigee
95.6744°
Mean anomaly
264.4453°
Rev number
2,971

§ Raw data

STARLINK-370281 68270U 26055J   26262.94029275  .00015262  00000+0  46176-3 0  99992 68270  53.1558 134.0140 0001705  95.6744 264.4453 15.34410283 29711

JSON: /api/v1/satellites/68270 · /tle

For live sub-satellite position, see the globe view (requires WebGL).

§ Visibility from observer

Set your observer location to see the next 7 days of passes ≥ 10°. The values pass through the URL so the page stays shareable.

No JS? Fill the form by hand. The geolocation button needs JavaScript.